Location: Sternwarte ZA, Rosenfeld-Brittheim
(48.2889°N, 8.6789°E)
Time: 21:29:09
(UTC+02:00)

ISS - Pass Details

Date: 27 May 2017
Orbit: 402 x 409 km, 51.6° (Epoch: 25 May)

Event Time Altitude Azimuth Distance (km) Brightness Sun altitude
Rises 04:09:36 0° 286° (WNW) 2,329 -0.2 -11.0°
Reaches altitude 10° 04:12:08 10° 266° (W) 1,463 -1.4 -10.7°
Maximum altitude 04:14:25 18° 222° (SW) 1,082 -2.3 -10.5°
Drops below altitude 10° 04:16:42 10° 177° (S) 1,453 -1.4 -10.2°
Sets 04:19:12 0° 157° (SSE) 2,306 -0.3 -10.0°
